Current Version              Previous Version:    01  02  03  04  05  06  07  08  09  10  11  12  13  14  15  16  17  18  19  20  21  22  23  24  25  26  27  28  29  30  
   31  32  33  34  35  36  37  38  39  40  41  42  43  44  45  46  47  48  49  50  51  52  53  54  55  56  57  58  59  60  

[Printable]
740
ASUS44 KLUB 252110
RWRTX
WEST TEXAS WEATHER ROUNDUP
NATIONAL WEATHER SERVICE LUBBOCK TX
300 PM CST TUE NOV 25 2014

NOTE: "FAIR" INDICATES FEW OR NO CLOUDS BELOW 12,000 FEET WITH NO
SIGNIFICANT WEATHER AND/OR OBSTRUCTIONS TO VISIBILITY.

TXZ004-006>008-010-012-014-016-OKZ002-252200-
TEXAS PANHANDLE/OKLAHOMA PANHANDLE

CITY           SKY/WX    TMP DP  RH WIND       PRES   REMARKS
AMARILLO       MOSUNNY   53  12  19 SW23G33   30.05F
BORGER         PTSUNNY   54  13  19 SW22G32   30.02F
CANADIAN       SUNNY     56  13  18 SW16G26   30.04F
DALHART        CLOUDY    52   8  17 SW22      30.00F
DUMAS            N/A     50   8  18 SW20G25   30.00F
GUYMON         PTSUNNY   54  12  18 SW24G31   29.96F
HEREFORD       PTSUNNY   54  10  17 S24G33    30.06F
PAMPA          MOSUNNY   52  14  22 SW20G29   30.05F
PERRYTON       MOSUNNY   51  17  25 SW21      30.02F
$$

TXZ026-029-035-045-048-252200-
SOUTHERN PANHANDLE/SOUTH PLAINS/ROLLING PLAINS

CITY           SKY/WX    TMP DP  RH WIND       PRES   REMARKS
CHILDRESS      SUNNY     58  13  17 SW15G26   30.13F
SEMINOLE       SUNNY     54  12  19 W18G25    30.22F
LUBBOCK        MOSUNNY   54  14  20 SW22G33   30.12F
PLAINVIEW      SUNNY     55  14  19 W22G31    30.09F
SNYDER         SUNNY     55  23  29 SW18G25   30.22F
$$

TXZ052-054-060>062-072-078-127-140-154-169-252200-
PERMIAN BASIN/CONCHO VALLEY/BIG COUNTRY/EDWARDS PLATEAU

CITY           SKY/WX    TMP DP  RH WIND       PRES   REMARKS
ABILENE        SUNNY     58  26  29 S7        30.21F
BIG SPRING     SUNNY     59  20  22 SW14G22   30.25F
BRADY          SUNNY     61  27  27 W9        30.22F
BROWNWOOD      SUNNY     59  27  29 W13G20    30.22F
JUNCTION       SUNNY     63  20  19 NW10      30.23F
MIDLAND        SUNNY     55  15  20 W17       30.24F
ODESSA         SUNNY     54  13  19 W17G28    30.24F
SAN ANGELO     SUNNY     62  20  19 W17G23    30.22F
SONORA         SUNNY     61  19  20 VRB6G15   30.29F
SWEETWATER     SUNNY     57  19  22 SW18      30.24F
WINK           SUNNY     56  12  17 SW15      30.25F
$$

TXZ055-058-074-075-080-082-252200-
FAR WEST/SOUTHWEST MOUNTAINS/TRANS PECOS

CITY           SKY/WX    TMP DP  RH WIND       PRES   REMARKS
ALPINE         SUNNY     54   5  14 W12       30.35F
DRYDEN           N/A     63  11  13 W8G16     30.26F
EL PASO        SUNNY     53   9  17 W8        30.33F
FORT STOCKTON  SUNNY     55  16  21 SW9G17    30.28F
MARFA          SUNNY     52   5  15 W14G20    30.32F
PECOS          SUNNY     57  13  17 SW10G16   30.27F
PRESIDIO       FAIR      57  13  17 W5        30.32F
$$

TXZ014-016-019-021>030-083-252200
TEXAS TECH WEST TEXAS MESONET/TEXAS PANHANDLE/NORTHERN SOUTH PLAINS

CITY           SKY/WX    TMP DP  RH WIND       PRES   REMARKS
ABERNATHY 5ENE   N/A     53  13  20 SW21      30.12F
AMARILLO 9NNE    N/A     53  12  19 SW21      30.03F
AMARILLO 7SSE    N/A     54  12  19 SW23      30.05F
AMHERST 1NE      N/A     52   9  18 SW23G32   30.11F
BOOTLEG 11WNW    N/A     52   7  16 W30       30.06S
CANADIAN 6E      N/A     55  13  19 SW15      30.03F
CAPROCK CYN SP   N/A     56  13  18 SW18      30.09F
CHILDRESS 2NNE   N/A     58  16  19 S12       30.12F
CLARENDON 2WSW   N/A     54  13  19 SW20      30.07F
CLAUDE 12SW      N/A     53  13  20 SW20      30.05F
DIMMITT 2NE      N/A     50  11  21 SW28G39   30.05F
FLOYDADA 2NNE    N/A     53  11  18 SW21      30.11F
FRIONA 2NE       N/A     54   3  12 SW29      30.05F
GOODLETT 3W      N/A     58  17  20 SW14      30.13F
HART 3N          N/A     52  10  18 SW25      30.07F
HEREFORD 2NW     N/A     52   6  15 SW25      30.04F
MCLEAN 1E        N/A     54  14  20 SW22      30.05F
MEMPHIS 1NE      N/A     57  13  17 SW15      30.09F
MULESHOE 2SSW    N/A     52  10  18 SW26      30.09F
OLTON 6S         N/A     50  13  22 SW25      30.10F
PALO DURO SP     N/A     53  11  18 SW23      30.06F
PAMPA 2E         N/A     52  15  22 SW15G24   30.04F
PLAINVIEW 1S     N/A     53  13  20 SW21G31   30.09F
SILVERTON 7ESE   N/A     54  14  20 SW23      30.08F
TULIA 2ENE       N/A     52  13  20 SW28      30.07F
TURKEY 2WSW      N/A     57  13  18 SW18      30.09F
UMBARGER 3NNE    N/A     51  11  20 SW23      30.05F
$$

TXZ033>036-039>041-045>048-252200
TEXAS TECH WEST TEXAS MESONET/SOUTH PLAINS

CITY           SKY/WX    TMP DP  RH WIND       PRES   REMARKS
AIKEN 3WSW       N/A     53  15  21 SW21      30.10F
ANTON 6SSW       N/A     54  14  20 SW22      30.12F
BROWNFIELD 2S    N/A     53  11  18 SW21      30.17F
DENVR CTY 7WNW   N/A     52   8  17 SW20      30.18F
GAIL 2ESE        N/A     56  16  20 SW16      30.20F
LAMESA 2SE       N/A     55  14  19 SW17      30.21F
LEVELLAND 4S     N/A     53   8  16 SW22      30.14F
LUBBOCK 3WNW     N/A     55  12  18 SW21      30.14F
MORTON 1ENE      N/A     51  10  18 SW20      30.14F
ODONNELL 1N      N/A     54  13  20 SW22      30.19F
PLAINS 3N        N/A     53   8  16 SW22      30.17F
RALLS 1SE        N/A     54  13  20 W21       30.14F
REESE CENTER     N/A     53  11  18 SW23      30.13F
SEAGRAVES 1SW    N/A     53   9  16 SW20      30.19F
SEMINOLE 2NNE    N/A     54   8  15 W17       30.20F
SLATON 2NE       N/A     54  12  18 SW24      30.15F
SNYDER 3E        N/A     56  22  27 SW17      30.21F
SUNDOWN 8SW      N/A     54   8  16 SW21      30.15F
TAHOKA 3NNE      N/A     55  13  19 SW20      30.16F
WOLFFORTH 6SSW   N/A     54  12  18 SW22      30.16F
$$

TXZ031-032-036>038-042>044-252200-
TEXAS TECH WEST TEXAS MESONET/ROLLING PLAINS

CITY           SKY/WX    TMP DP  RH WIND       PRES   REMARKS
ASPERMONT 3NE    N/A     58  26  29 SW14      30.19F
FLUVANNA 3WNW    N/A     54  19  25 SW15      30.19F
GRAHAM 5SSW      N/A     54  17  22 SW14      30.18F
GUTHRIE 10WSW    N/A     59  17  20 SW20      30.16F
HASKELL 1NW      N/A     56  31  38 SW9       30.18F
JAYTON 1SSE      N/A     58  20  23 W12       30.18F
KNOX CITY 3NW    N/A     58  25  27 SW13      30.18F
LK A HENRY 1NW   N/A     57  16  20 W18       30.18F
NORTHFIELD 1S    N/A     59  14  17 SW17      30.11F
ODELL 4ENE       N/A     56  27  32 S8        30.16F
PADUCAH 10SW     N/A     58  14  17 SW20      30.14F
POST 1NE         N/A     56  17  20 SW16G29   30.18F
RRING SPRGS 3N   N/A     55  15  20 SW22G31   30.13F
SEYMOUR 3NW      N/A     55  29  36 SW9       30.18F
SPUR 1W          N/A     57  15  19 SW17G26   30.16F
WEINERT 2NNE     N/A     57  30  35 SW14      30.18F
WHITE RVR 6NE    N/A     56  15  19 SW20G30   30.15F
$$

TXZ052-054-060>062-072-078-127-140-154-169-252200-
TEXAS TECH WEST TEXAS MESONET/PERMIAN BASIN/
CONCHO VALLEY/BIG COUNTRY/EDWARDS PLATEAU

CITY           SKY/WX    TMP DP  RH WIND       PRES   REMARKS
COYANOSA 2N      N/A     57  16  20 SW7       30.28F
JUNCTION 1SSW    N/A     63  21  19 W5        30.23F
MERTZON 3NNE     N/A     60  20  21 W9        30.24F
SAN ANGELO 7NW   N/A     60  22  23 SW8       30.22F
STRLNG CT 4WSW   N/A     57  20  23 W13       30.23F
ST LAWRNCE 5SW   N/A     55  15  20 W15       30.24F
SWEETWATR 11SW   N/A     56  19  23 W12       30.22F
WALL 1E          N/A     60  22  23 SW12      30.23F
$$

TXZ055-058-074-075-080-082-252200-
TEXAS TECH WEST TEXAS MESONET/FAR WEST/SOUTHWEST MOUNTAINS/TRANS PECOS

CITY           SKY/WX    TMP DP  RH WIND       PRES   REMARKS
PRSMN GAP BBNP   N/A     62  13  15 SW13      30.28F
GUADLPE MTN NP   N/A     46   6  19 W12       30.26F
$$